Date String (YYYY-MM-DD hh:mm:ss) UTC,Instrument flags,absolute air pressure of the measurement (hPa),sample flow rate (lpm),inlet stack bypass flow (lpm),air temperature of the measurement (°C),ambient temperature measured by the external sensor (°C),aerosol sample conditioner tube jacket temperature (°C),OPC LED temperature (°C),internal box temperature (°C),relative humidity of the measurement (%),span deviation,mass concentration of particles derived from Lorenz-Mie calculation of OPC scattering (μg/m³),mass concentration of particles derived from Lorenz-Mie calculation of OPC scattering (μg/m³),mass concentration of particles derived from Lorenz-Mie calculation of OPC scattering (μg/m³)
DateTimeUTC,F1_M11,P_M11,Q1_M11,Q2_M11,T1_M11,T2_M11,T3_M11,T4_M11,T5_M11,U1_M11,ZSPAN_M11,X0_M11,X2_M11,X1_M11
2024-05-20 14:00:00,SystemResetWarning,0828.2,4.99,000.00,025.7,025.0,000.0,033.9,027.5,023.4,0000.0,0013.07,0004.10,0002.98
2024-05-20 14:01:00,SystemResetWarning,0828.3,4.99,000.00,025.7,025.0,000.0,033.9,027.5,023.5,0000.0,0013.22,0004.11,0002.99
2024-05-20 14:02:00,SystemResetWarning,0828.2,5.00,000.00,025.7,025.0,000.0,033.9,027.5,023.0,0000.0,0014.01,0004.12,0002.98
2024-05-20 14:03:00,SystemResetWarning,0828.2,5.01,000.00,025.7,025.0,000.0,033.9,027.5,023.2,0000.0,0014.73,0004.18,0002.98
2024-05-20 14:04:00,SystemResetWarning,0828.2,5.01,000.00,025.7,025.0,000.0,034.0,027.5,023.2,0000.0,0015.33,0004.19,0003.00
2024-05-20 14:05:00,SystemResetWarning,0828.2,5.00,000.00,025.7,025.0,000.0,034.0,027.5,023.3,0000.0,0015.21,0004.16,0003.00
2024-05-20 14:06:00,SystemResetWarning,0828.2,4.98,000.00,025.7,025.0,000.0,034.0,027.5,023.5,0000.0,0014.72,0004.12,0003.01
2024-05-20 14:07:00,SystemResetWarning,0828.2,4.99,000.00,025.7,025.0,000.0,034.0,027.5,023.9,0000.0,0014.29,0004.12,0003.00
2024-05-20 14:08:00,SystemResetWarning,0828.2,5.01,000.00,025.7,025.0,000.0,034.0,027.5,023.5,0000.0,0014.08,0004.12,0002.99
2024-05-20 14:09:00,SystemResetWarning,0828.2,5.01,000.00,025.7,025.0,000.0,034.0,027.5,023.1,0000.0,0014.06,0004.10,0002.99
2024-05-20 14:10:00,SystemResetWarning,0828.1,4.99,000.00,025.7,025.0,000.0,034.0,027.5,022.9,0000.0,0013.47,0004.07,0002.99
2024-05-20 14:11:00,SystemResetWarning,0828.1,4.99,000.00,025.7,025.0,000.0,034.0,027.5,022.5,0000.0,0013.80,0004.04,0002.99
2024-05-20 14:12:00,SystemResetWarning,0828.1,5.01,000.00,025.7,025.0,000.0,034.0,027.5,022.6,0000.0,0013.81,0004.03,0002.98
2024-05-20 14:13:00,SystemResetWarning,0828.1,5.01,000.00,025.7,025.0,000.0,034.0,027.5,022.4,0000.0,0013.15,0004.00,0002.97
2024-05-20 14:14:00,SystemResetWarning,0828.1,5.00,000.00,025.7,025.0,000.0,034.0,027.5,022.5,0000.0,0012.63,0003.96,0002.95
2024-05-20 14:15:00,SystemResetWarning,0828.1,4.99,000.00,025.7,025.0,000.0,034.0,027.5,022.6,0000.0,0011.52,0003.95,0002.94
2024-05-20 14:16:00,SystemResetWarning,0828.1,5.00,000.00,025.7,025.0,000.0,034.0,027.5,023.0,0000.0,0011.81,0003.95,0002.92
2024-05-20 14:17:00,SystemResetWarning,0828.0,5.00,000.00,025.7,025.0,000.0,034.0,027.6,023.1,0000.0,0012.12,0003.95,0002.93
2024-05-20 14:18:00,SystemResetWarning,0828.0,5.01,000.00,025.8,025.0,000.0,034.0,027.6,022.8,0000.0,0012.34,0003.93,0002.93
2024-05-20 14:19:00,SystemResetWarning,0828.1,5.01,000.00,025.8,025.0,000.0,034.0,027.6,022.8,0000.0,0012.43,0003.95,0002.95
2024-05-20 14:20:00,SystemResetWarning,0828.1,5.00,000.00,025.8,025.0,000.0,034.0,027.6,023.1,0000.0,0012.33,0003.98,0002.96
2024-05-20 14:21:00,SystemResetWarning,0828.0,4.98,000.00,025.8,025.0,000.0,034.0,027.6,023.0,0000.0,0012.14,0003.99,0002.94
2024-05-20 14:22:00,SystemResetWarning,0828.1,4.99,000.00,025.8,025.0,000.0,034.0,027.6,022.8,0000.0,0011.44,0003.98,0002.95
2024-05-20 14:23:00,SystemResetWarning,0828.1,5.01,000.00,025.8,025.0,000.0,034.1,027.6,022.4,0000.0,0011.12,0003.94,0002.96
2024-05-20 14:24:00,SystemResetWarning,0828.0,5.01,000.00,025.8,025.0,000.0,034.1,027.6,022.4,0000.0,0011.07,0003.93,0002.98
2024-05-20 14:25:00,SystemResetWarning,0827.9,4.99,000.00,025.8,025.0,000.0,034.1,027.6,022.4,0000.0,0011.61,0003.91,0002.98
2024-05-20 14:26:00,SystemResetWarning,0828.0,5.00,000.00,025.8,025.1,000.0,034.1,027.6,022.7,0000.0,0012.21,0003.91,0002.98
2024-05-20 14:27:00,SystemResetWarning,0827.9,5.00,000.00,025.8,025.1,000.0,034.1,027.6,022.9,0000.0,0011.53,0003.93,0003.01
2024-05-20 14:28:00,SystemResetWarning,0827.8,4.99,000.00,025.8,025.1,000.0,034.1,027.6,022.7,0000.0,0010.98,0003.91,0002.99
2024-05-20 14:29:00,SystemResetWarning,0827.9,5.01,000.00,025.8,025.1,000.0,034.1,027.6,022.9,0000.0,0010.69,0003.85,0002.99
2024-05-20 14:30:00,SystemResetWarning,0827.8,5.01,000.00,025.8,025.1,000.0,034.1,027.6,022.7,0000.0,0010.86,0003.82,0002.99
2024-05-20 14:31:00,SystemResetWarning,0827.8,5.00,000.00,025.8,025.1,000.0,034.1,027.6,022.9,0000.0,0011.55,0003.84,0003.00
2024-05-20 14:32:00,SystemResetWarning,0827.8,4.99,000.00,025.8,025.1,000.0,034.1,027.6,023.2,0000.0,0011.84,0003.87,0003.01
2024-05-20 14:33:00,SystemResetWarning,0827.9,4.99,000.00,025.8,025.1,000.0,034.1,027.6,022.7,0000.0,0012.62,0003.93,0003.03
2024-05-20 14:34:00,SystemResetWarning,0827.8,5.00,000.00,025.8,025.1,000.0,034.1,027.6,022.8,0000.0,0013.50,0003.97,0003.04
2024-05-20 14:35:00,SystemResetWarning,0827.8,5.00,000.00,025.8,025.1,000.0,034.1,027.6,023.1,0000.0,0014.23,0003.97,0003.03
2024-05-20 14:36:00,SystemResetWarning,0827.8,5.01,000.00,025.8,025.1,000.0,034.1,027.6,022.9,0000.0,0014.17,0003.98,0003.01
2024-05-20 14:37:00,SystemResetWarning,0827.8,5.01,000.00,025.8,025.1,000.0,034.1,027.6,022.9,0000.0,0013.54,0004.00,0003.02
2024-05-20 14:38:00,SystemResetWarning,0827.8,5.00,000.00,025.8,025.1,000.0,034.1,027.6,023.1,0000.0,0013.63,0004.01,0003.02
2024-05-20 14:39:00,SystemResetWarning,0827.8,5.00,000.00,025.8,025.1,000.0,034.1,027.6,022.8,0000.0,0014.02,0004.05,0003.03
2024-05-20 14:40:00,SystemResetWarning,0827.8,5.00,000.00,025.9,025.1,000.0,034.1,027.6,023.0,0000.0,0014.50,0004.13,0003.03
2024-05-20 14:41:00,SystemResetWarning,0827.8,5.01,000.00,025.9,025.1,000.0,034.1,027.7,023.1,0000.0,0014.79,0004.19,0003.05
2024-05-20 14:42:00,SystemResetWarning,0827.8,5.00,000.00,025.9,025.2,000.0,034.1,027.7,023.1,0000.0,0014.72,0004.16,0003.08
2024-05-20 14:43:00,SystemResetWarning,0827.8,5.00,000.00,025.9,025.2,000.0,034.1,027.7,023.0,0000.0,0014.85,0004.16,0003.10
2024-05-20 14:44:00,SystemResetWarning,0827.7,4.99,000.00,025.9,025.2,000.0,034.1,027.7,023.3,0000.0,0014.85,0004.16,0003.10
2024-05-20 14:45:00,SystemResetWarning,0827.8,5.00,000.00,025.9,025.2,000.0,034.2,027.7,023.3,0000.0,0014.31,0004.18,0003.10
2024-05-20 14:46:00,SystemResetWarning,0827.8,5.00,000.00,025.9,025.2,000.0,034.2,027.7,023.3,0000.0,0013.56,0004.20,0003.11
2024-05-20 14:47:00,SystemResetWarning,0827.8,5.00,000.00,025.9,025.2,000.0,034.2,027.7,023.2,0000.0,0013.32,0004.25,0003.12
2024-05-20 14:48:00,SystemResetWarning,0827.8,5.00,000.00,025.9,025.2,000.0,034.2,027.7,022.8,0000.0,0013.24,0004.28,0003.13
2024-05-20 14:49:00,SystemResetWarning,0827.8,5.00,000.00,025.9,025.2,000.0,034.2,027.7,022.9,0000.0,0013.58,0004.27,0003.13
2024-05-20 14:50:00,SystemResetWarning,0827.7,4.99,000.00,025.8,023.9,000.0,034.3,026.9,022.9,0000.0,0013.74,0004.23,0003.13
2024-05-20 14:51:00,SystemResetWarning,0827.7,5.00,000.00,025.3,022.0,000.0,034.2,025.9,023.5,0000.0,0013.12,0004.22,0003.15
2024-05-20 14:52:00,SystemResetWarning,0827.7,5.02,000.00,025.0,021.9,000.0,034.2,025.7,024.0,0000.0,0012.34,0004.20,0003.16
2024-05-20 14:53:00,SystemResetWarning,0827.7,5.00,000.00,024.9,022.3,000.0,034.0,025.8,024.7,0000.0,0012.05,0004.19,0003.15
2024-05-20 14:54:00,SystemResetWarning,0827.7,5.00,000.00,024.9,022.6,000.0,033.8,026.1,024.5,0000.0,0011.08,0004.21,0003.15
2024-05-20 14:55:00,SystemResetWarning,0827.7,5.00,000.00,024.9,022.9,000.0,033.7,026.3,024.9,0000.0,0010.77,0004.26,0003.16
2024-05-20 14:56:00,SystemResetWarning,0827.7,5.00,000.00,024.9,023.2,000.0,033.6,026.5,024.4,0000.0,0010.68,0004.27,0003.18
2024-05-20 14:57:00,SystemResetWarning,0827.7,5.00,000.00,024.9,023.5,000.0,033.6,026.6,024.3,0000.0,0011.73,0004.31,0003.21
2024-05-20 14:58:00,SystemResetWarning,0827.7,5.00,000.00,024.9,023.7,000.0,033.5,026.6,024.9,0000.0,0012.69,0004.28,0003.23
2024-05-20 14:59:00,SystemResetWarning,0827.7,5.00,000.00,025.0,023.8,000.0,033.5,026.7,025.3,0000.0,0012.59,0004.25,0003.24
